Regional Weather Roundup
Issued by NWS Portland, ME

Current Version | Previous Version | Text Only | Print | Product List | Glossary Off
Versions: 1 2 3 4 5 6 7 8 9 10 11 12 13 14 15 16 17 18 19 20 21 22 23 24 25 26 27 28 29 30 31 32 33 34 35 36 37 38 39 40 41 42 43 44 45 46 47 48 49 50
256 ASUS41 KGYX 200910 RWRGYX WEATHER ROUNDUP FOR MAINE AND NEW HAMPSHIRE NATIONAL WEATHER SERVICE GRAY ME 500 AM EDT WED JUN 20 2018 MEZ002-005-006-010-012-015-018-020-021-024-026-027-029-201000- MAINE CITY SKY/WX TMP DP RH WIND PRES REMARKS PORTLAND FAIR 52 50 93 W3 29.86S SANFORD FAIR 43 42 97 SW5 29.88R BAR HARBOR FAIR 50 46 86 CALM 29.83S WISCASSET FAIR 46 46 100 CALM 29.86S ROCKLAND FAIR 49 45 86 CALM 29.84S FRYEBURG FOG 44 44 100 CALM 29.88S VSB 1/4 LEWISTONAUBURN FAIR 46 45 96 CALM 29.87S AUGUSTA FAIR 55 45 68 SW5 29.85S WATERVILLE FAIR 49 45 86 CALM 29.82S BANGOR FAIR 50 45 83 S3 29.82S GREENVILLE N/A 50 43 77 CALM 29.82R MILLINOCKET FAIR 56 44 64 NW5 29.81S HOULTON FAIR 43 42 97 CALM 29.75F PRESQUE ISLE FAIR 44 42 93 CALM 29.75F FRENCHVILLE FAIR 54 42 64 W9 29.72S CARIBOU FAIR 50 43 77 SW6 29.73S $$ NHZ002-005-008-009-011-012-014-201000- NEW HAMPSHIRE CITY SKY/WX TMP DP RH WIND PRES REMARKS PORTSMOUTH CLEAR 54 50 86 NW3 29.86S ROCHESTER FAIR 50 49 96 NW5 29.87R NASHUA FAIR 51 50 96 CALM 29.90R MANCHESTER FAIR 58 50 75 CALM 29.88R CONCORD FAIR 48 46 93 CALM 29.89S LACONIA FAIR 52 50 93 CALM 29.90R PLYMOUTH N/A 46 45 96 CALM 29.91R BERLIN FOG 38 38 100 CALM 29.90S VSB 1/2 WHITEFIELD FOG 40 40 100 CALM 29.92R VSB 1/4 JAFFREY FAIR 49 48 97 CALM 29.92R KEENE FOG 46 45 93 S3 29.93R VSB 1/2 LEBANON MOCLDY 47 43 86 CALM 29.92R MT WASHINGTON PTCLDY 45 27 49 W20 N/A $$ VTZ005-007-008-201000- VERMONT CITY SKY/WX TMP DP RH WIND PRES REMARKS ST JOHNSBURY N/A 48 48 100 MISG 29.90R MONTPELIER FOG 43 43 100 CALM 29.95S VSB 1 BURLINGTON FAIR 53 49 86 CALM 29.90R $$ MAZ007-012-024-CTZ003-RIZ002-NYZ038-NYZ072-201000- SOUTHERN NEW ENGLAND AND NY CITY SKY/WX TMP DP RH WIND PRES REMARKS BOSTON FAIR 63 50 62 NW7 29.88S WORCESTER FAIR 61 45 55 N6 29.90S NANTUCKET FAIR 56 56 100 CALM 29.88R PROVIDENCE FAIR 60 51 72 W5 29.89R HARTFORD FAIR 56 53 90 CALM 29.90R ALBANY FAIR 58 53 84 CALM 29.91R NEW YORK CITY MOCLDY 70 56 61 NE3 29.88R $$ ANZ081-ANZ082-ANZ150-NHZ014-MEZ023>029-201000- COASTAL MARINE OBSERVATIONS STATION/POSITION TIME TEMP WIND PRES WAVE AIR SEA DIR/SP/G HT/PER (UTC) (F) (DEG/KT/KT) (MB) (FT/S) MOUNT DESERT ROC 0900 55 270/ 9/ 9 1010.4R MATINICUS ROCK 0900 56 310/ 10/ 10 1010.1R ISLE OF SHOALS 0900 59 320/ 9/ 9 1010.9R JEFFREYS LEDGE 0836 57 N/A 2/ 7 $$ .............KEY.............. WCI - WIND CHILL TC - TEMPERATURE IN CELSIUS VSB - VISIBILITY IN MILES HX - HEAT INDEX FAIR- INDICATES FEW OR NO CLOUDS BELOW 12,000 FT, WITH NO SIGNIFICANT WEATHER AND/OR OBSTRUCTIONS TO VISIBILITY.

USA.gov is the U.S. government's official web portal to all federal, state and local government web resources and services.